Torna al catalogo

STARLINK-32824

AttivoComunicazioniVLEO
NORAD 62817·PAYLOAD·🇺🇸 United States

Lanciato Jan 24, 2025 da Vandenberg Space Force Base

Loading…

Prossimi Passaggi (prossime 24 ore)

TLE

AggiornatoSource: CelesTrak SupGP

Epoca: Sep 14, 2026, 22:22 UTC

1 62817C 25018M   26257.93243056 -.00071260  00000+0 -21051-2 0  2579
2 62817  53.1586 149.4737 0001338  85.1882  70.5072 15.34430334    18

Traccia STARLINK-32824 in tempo reale con AllMySat

Download on the App Store